Find Starlink 30781

NORAD ID: 58123 Int'l Des: 2023-162 Owner: SPXS Country: US Constellation: starlink operational
LEOCIRCULAR

現在のビュー

3D地球を読み込み中...

About Starlink 30781

Starlink 30781 (NORAD 58123) is a starlink constellation satellite (v2 mini) launched Oct 22, 2023 by SPXS of US. It operates in LEO, CIRCULAR orbit with a mass of 730.00 kg.

次回通過

Passes for default location (London). Set your location on the main map for personalized predictions.

高度履歴

Loading altitude history...

軌道要素

1 58123U 23162F 26237.35416521 .00000377 00000-0 23210-4 0 9999
2 58123 43.0015 259.8391 0001339 269.6729 90.3969 15.27576422158100
Epoch: Aug 25, 2026 • Age: 18 hours

現在のステータス

高度 487.0 km
遠地点 / 近地点 N/A
速度 7.63 km/s
衛星直下点 42.83°N, 29.24°W
打ち上げ日 Oct 22, 2023
運用期間 2.8 years
タイプ internet

技術仕様

分類 Payload
質量 730.00 kg
乾燥質量 700.00 kg
総質量 730.00 kg
長さ 0.30 m
直径 4.10 m
スパン 29.00 m
形状 Box + pan
製造者 SPXS
バスタイプ Starlink V2M
フェーズステータス In Orbit
所有者/国 SPXS/US

Most Searched